sat.trackr.live / text

‹ back to catalog

STARLINK-2725

NORAD 48681 · 2021-044AV

PAYLOAD ACTIVE UNKNOWN

§ Identity

Operator
Country
US
Launch date
2021-05-26
Launch site
AFETR
Launch vehicle
Mass (kg)
RCS (m²)

Purposes: comms

External: N2YO · Heavens-Above · Gunter

§ Orbital elements

Epoch: 2026-05-25T01:26:09.630816Z

Period
94.01 min
Inclination
53.1601°
Eccentricity
0.0001492
Mean motion
15.31703689 rev/d
Perigee alt
469.7 km
Apogee alt
471.8 km
Semi-major
6,848.9 km
B*
4.8011e-5
RAAN
80.4184°
Arg perigee
126.4472°
Mean anomaly
233.6667°
Rev number
27,605

§ Raw data

STARLINK-27251 48681U 21044AV  26145.05983369  .00001125  00000+0  48011-4 0  99952 48681  53.1601  80.4184 0001492 126.4472 233.6667 15.31703689276058

JSON: /api/v1/satellites/48681 · /tle

For live sub-satellite position, see the globe view (requires WebGL).

§ Visibility from observer

Set your observer location to see the next 7 days of passes ≥ 10°. The values pass through the URL so the page stays shareable.

No JS? Fill the form by hand. The geolocation button needs JavaScript.